Location: Newark
(17.9939°S, 31.0481°E)
Time: 03:41:45
(UTC+00:00)

Courier 1B - Pass Details

Date: 18 November 2019
Orbit: 963 x 1209 km, 28.3° (Epoch: 12 December)

Event Time Altitude Azimuth Distance (km) Brightness Sun altitude
Rises 16:46:05 0° 264° (W) 3,940 12.3 -8.6°
Reaches altitude 10° 16:49:00 10° 257° (WSW) 3,019 11.6 -9.2°
Maximum altitude 16:56:01 41° 188° (S) 1,636 9.0 -10.8°
Drops below altitude 10° 17:03:21 10° 119° (ESE) 3,143 9.8 -12.3°
Enters shadow 17:06:16 - 112° (ESE) 4,061 10.3 -13.0°
